GFSNW_sfc_30mbdewp_090.txt.gz
Dewpoint
51 49 47 47 47 47 42 39 32 43 45 34 35 32 34 37 36 33 29 27 25 25 28 28 29 29 32 34 34 32 33 30 29 28 31 32 31 27 23 20 21 21 23 27
50 48 47 46 46 47 39 37 37 42 43 31 33 36 36 37 32 31 28 27 28 30 27 27 29 30 34 34 34 32 33 28 26 26 28 30 28 26 25 24 26 21 21 25
48 46 45 46 46 46 43 38 31 37 39 37 33 35 35 33 33 29 30 30 30 27 27 28 30 29 32 33 33 34 33 27 27 23 26 29 27 27 25 25 21 24 25 27
47 47 47 47 48 48 47 36 34 35 32 31 32 34 34 29 29 30 29 29 28 27 26 26 26 27 27 31 32 32 31 27 26 25 25 28 27 26 26 25 22 22 26 26
48 48 46 46 46 46 44 36 34 36 30 29 31 32 28 29 31 32 28 27 28 28 29 30 26 28 29 28 30 29 30 28 28 26 23 25 23 24 27 28 27 23 25 26
45 45 45 45 44 45 39 39 37 34 29 28 29 31 31 31 32 32 32 32 30 31 33 34 33 32 31 30 29 28 28 30 28 27 25 22 22 21 24 27 29 29 27 28
47 47 46 45 43 42 42 39 38 29 26 28 31 32 32 32 33 31 33 33 31 33 34 32 32 31 29 29 29 29 27 27 27 26 24 20 22 25 26 25 27 30 30 31
48 47 47 46 42 41 38 38 38 33 26 30 31 31 32 32 33 33 34 34 34 35 33 30 26 27 27 27 28 28 28 27 26 23 22 20 22 25 26 26 26 29 29 30
49 49 48 46 42 40 38 37 38 38 30 30 32 31 31 30 31 33 33 35 37 36 31 24 20 19 21 21 23 28 28 27 25 25 21 15 23 27 28 27 23 29 29 30
47 47 48 46 43 39 39 36 37 39 32 32 32 32 32 33 32 32 33 33 34 34 30 22 20 20 23 21 18 21 22 22 21 22 21 21 26 27 28 19 22 29 29 29
47 46 47 46 45 40 38 36 36 37 34 33 33 32 32 34 34 31 34 32 34 33 30 25 23 21 23 20 21 20 20 19 20 19 18 15 27 27 23 26 27 28 29 29
47 46 46 46 44 41 38 34 36 36 34 33 32 32 31 31 32 32 35 32 32 34 31 28 25 22 22 20 16 25 18 22 23 21 22 26 28 29 29 29 28 29 29 30
45 46 45 44 44 41 37 35 36 38 34 32 32 31 31 32 32 33 33 34 35 35 34 33 30 25 26 20 20 21 24 27 23 23 24 26 27 28 29 29 29 30 30 30
44 45 44 43 40 39 39 35 35 35 33 34 31 30 31 32 32 33 33 33 35 34 35 35 32 28 28 24 25 24 25 27 25 25 25 26 27 28 29 29 30 30 29 27
44 45 45 41 41 40 39 37 36 34 34 29 30 30 31 31 31 33 34 33 35 34 33 33 32 30 27 28 27 26 27 26 24 22 26 26 28 29 29 29 29 28 26 25
44 45 45 43 40 39 39 36 37 36 35 33 28 31 30 30 30 31 32 33 32 33 33 33 32 30 28 28 26 24 24 26 27 26 27 28 29 29 30 29 28 26 25 24
44 44 45 42 41 39 36 35 38 37 35 32 25 31 29 30 29 31 30 31 31 31 33 30 30 29 29 30 25 24 24 27 28 27 28 28 29 28 29 28 26 26 24 22
45 45 41 40 39 39 36 37 36 36 33 33 23 27 27 30 29 29 30 29 30 31 31 28 26 27 27 26 28 28 25 27 28 27 27 26 28 29 28 27 23 19 16 14
45 42 39 37 35 33 36 39 40 37 33 26 25 22 26 29 29 29 29 29 27 30 27 27 26 26 24 25 26 26 25 26 26 28 24 23 23 24 23 20 17 14 13 13
40 37 33 31 34 38 38 36 33 32 32 29 26 29 25 29 28 28 28 28 27 25 27 27 24 24 26 27 27 26 25 27 27 24 21 20 19 18 17 16 15 14 16 18
38 33 31 35 35 34 29 27 27 29 24 29 28 28 27 28 27 27 28 28 28 21 26 23 24 24 24 25 25 26 27 26 25 23 23 22 21 19 16 16 18 20 20 19
38 36 35 34 31 27 21 20 23 20 21 23 24 26 28 28 29 27 27 26 25 20 26 23 20 24 26 24 23 26 25 23 17 16 16 17 18 19 18 18 18 18 19 18
34 32 27 27 27 20 19 14 16 19 22 25 26 24 27 26 28 27 26 22 22 24 22 20 21 25 26 25 25 25 23 18 17 18 19 18 18 17 16 15 17 18 17 17
32 26 23 20 22 21 24 23 26 27 28 28 29 27 26 26 24 25 21 24 22 19 16 13 25 26 25 26 25 23 19 19 20 19 18 17 16 15 17 18 18 17 16 15
31 30 24 26 27 28 27 28 24 25 29 28 26 26 25 24 24 22 23 20 15 18 12 22 27 26 24 24 22 20 20 20 18 17 14 14 17 17 17 17 17 16 15 15
33 31 27 29 25 27 26 25 26 28 28 28 27 24 22 22 23 21 18 18 10 15 22 28 24 26 23 21 21 20 20 19 18 17 17 17 17 16 15 17 16 16 16 16
31 29 31 30 27 28 28 28 26 29 27 22 25 19 14 22 19 18 21 17 18 23 25 26 24 26 23 20 18 17 16 15 16 17 18 18 17 15 16 14 15 15 15 15

GFSNW_sfc_30mbdewp_093.txt.gz
Dewpoint
48 48 47 48 48 46 41 39 33 41 45 32 36 32 34 37 35 35 29 28 28 27 29 28 29 29 33 36 34 34 35 32 29 29 31 32 31 29 25 21 22 22 23 26
48 47 47 47 48 49 40 36 37 41 42 31 33 35 34 37 34 31 28 28 30 30 28 27 29 31 34 34 34 33 32 28 24 22 23 28 29 28 26 26 25 24 21 26
48 47 46 46 47 47 41 36 27 33 37 37 34 33 33 33 33 30 31 30 30 29 27 29 29 30 33 33 33 35 32 28 25 23 25 28 27 27 28 24 22 25 25 28
45 45 45 45 46 47 45 36 32 33 28 31 33 34 32 30 30 32 30 28 29 28 27 26 26 27 28 31 33 32 32 25 26 26 25 27 25 25 27 26 25 23 27 28
46 46 45 44 45 47 41 35 32 35 33 30 32 31 31 31 31 31 30 31 32 32 32 31 30 30 30 29 31 29 30 27 28 27 24 24 22 23 27 28 28 27 27 28
48 48 47 45 43 45 40 40 38 33 28 29 29 31 31 32 32 32 33 32 31 30 32 33 32 32 31 30 28 28 28 29 26 22 27 24 22 21 24 28 29 29 26 29
49 49 48 45 44 42 41 38 37 31 26 30 31 32 32 31 33 31 33 33 32 33 34 34 32 32 31 29 29 29 28 27 28 20 24 19 23 25 26 25 29 30 30 32
49 48 48 47 43 43 36 37 36 34 27 31 32 32 32 33 33 33 33 34 34 36 34 28 26 26 27 28 28 28 29 28 25 20 20 21 22 25 26 25 26 29 29 32
48 48 48 47 46 44 38 36 38 37 31 30 32 32 32 31 31 33 33 34 36 35 32 26 19 17 21 20 21 28 28 28 25 24 21 13 22 26 28 27 20 29 30 31
47 47 48 47 46 45 38 34 37 38 32 32 33 31 31 34 33 32 33 33 33 34 30 24 21 19 22 18 19 19 20 22 20 22 21 21 26 27 28 17 18 29 29 30
47 47 47 47 46 44 40 35 36 37 32 32 32 32 32 32 33 32 34 32 33 32 30 25 24 21 22 20 20 19 18 18 19 20 18 9 26 27 21 24 27 29 29 29
45 46 46 45 45 44 41 33 37 37 34 33 32 32 32 32 32 33 34 32 33 34 31 30 26 22 22 20 15 24 18 20 20 20 18 24 28 28 29 28 28 28 29 30
44 45 46 44 42 41 40 35 35 38 33 32 31 30 31 32 32 33 33 34 34 35 34 32 31 27 26 21 21 21 23 27 23 21 21 25 26 29 29 29 29 30 30 30
44 44 46 43 41 41 39 34 35 35 34 32 31 31 30 32 32 33 33 33 34 35 34 33 32 29 28 25 24 24 22 26 24 24 25 26 27 28 29 29 30 30 29 28
44 44 45 45 41 40 38 36 35 34 33 29 29 31 31 31 31 33 33 33 34 34 32 31 29 31 29 28 27 26 26 24 23 21 24 24 27 29 30 29 29 29 27 25
45 44 45 45 42 40 38 34 37 37 35 31 21 31 30 30 30 31 32 34 33 32 33 32 32 31 29 26 26 26 26 27 26 24 28 28 28 30 30 29 29 26 25 24
44 45 45 44 41 39 36 33 37 37 36 30 23 26 30 29 29 30 30 31 31 31 32 31 30 30 29 27 25 27 27 25 27 28 28 27 28 27 29 28 26 27 24 20
45 45 44 40 39 38 34 37 37 37 32 32 21 21 26 29 28 28 30 29 29 30 29 29 27 28 28 26 27 28 28 27 27 28 27 28 29 29 28 26 24 18 14 14
46 45 41 37 34 32 35 39 39 37 31 24 24 18 22 29 28 29 28 29 26 29 28 27 27 25 24 26 26 27 27 27 27 26 26 27 27 28 25 20 17 14 13 16
43 37 34 30 33 38 37 35 31 31 31 29 22 27 24 28 27 27 27 28 26 25 26 27 24 24 26 27 27 27 27 27 27 25 24 22 21 21 19 16 15 17 19 18
37 33 30 34 36 34 28 26 25 28 24 27 26 27 26 28 25 26 28 26 26 21 22 23 21 23 26 25 24 27 27 28 26 25 24 22 20 19 16 17 19 18 17 17
37 35 35 33 29 26 20 17 22 21 19 25 23 22 28 27 28 26 27 24 25 18 25 22 17 21 26 24 26 26 27 25 23 22 21 19 19 18 18 17 17 17 17 17
33 31 26 25 24 20 18 15 14 16 21 24 25 22 26 26 28 26 25 21 20 24 20 17 19 26 26 25 26 23 20 18 17 18 19 18 18 17 15 15 17 17 17 16
29 25 23 20 20 20 20 18 15 21 24 25 27 25 24 26 24 24 20 22 22 18 14 11 18 28 25 25 25 21 18 18 18 18 18 17 15 16 18 18 17 16 14 15
30 29 23 23 22 25 25 26 22 26 27 28 26 25 25 23 23 23 22 20 15 16 10 16 26 26 26 25 23 21 20 19 18 16 15 15 16 16 17 16 16 15 15 15
32 30 27 28 27 26 24 22 21 27 27 26 26 22 21 21 21 20 17 15 10 7 17 22 27 24 25 24 23 21 21 19 17 15 15 17 16 15 14 17 16 15 15 15
32 29 31 28 26 24 26 23 24 28 26 19 23 16 12 20 20 19 19 16 13 20 24 26 25 25 25 22 22 21 20 18 17 17 17 16 17 15 16 13 14 15 15 16

GFSNW_sfc_30mbdewp_096.txt.gz
Dewpoint
48 48 48 49 49 46 40 37 30 37 43 33 34 32 34 37 35 36 31 29 27 27 28 31 30 29 32 36 36 34 35 33 28 28 30 33 31 29 27 22 21 23 23 27
47 47 47 48 48 46 39 34 35 39 41 29 31 34 33 36 32 31 29 29 30 30 28 26 29 31 34 36 34 33 33 28 24 16 21 27 29 28 28 26 25 24 22 27
48 47 46 46 48 47 39 33 25 31 36 36 34 32 33 31 33 30 31 30 30 29 28 29 29 30 33 34 34 35 32 29 25 20 23 27 27 25 28 24 23 25 26 27
49 48 47 47 48 48 38 34 31 34 29 30 33 34 32 30 30 31 32 30 32 28 27 27 28 29 29 31 33 33 31 27 26 25 26 25 26 23 26 26 26 23 27 27
49 49 47 46 46 48 39 33 31 35 32 30 30 31 31 31 31 31 30 31 31 32 29 30 28 30 29 29 29 29 30 27 28 27 25 24 24 22 25 28 28 27 28 28
49 49 49 46 46 43 39 40 38 33 28 29 29 31 32 32 32 32 33 32 31 29 32 33 33 32 32 31 29 28 28 28 25 17 25 24 22 21 24 27 29 29 25 29
48 48 49 48 46 40 39 37 37 29 26 30 31 32 32 31 33 30 33 33 32 33 35 35 33 32 31 31 29 29 27 26 27 23 22 13 22 24 26 25 29 30 31 31
48 47 48 48 46 43 35 36 35 31 27 31 32 31 32 32 33 32 33 34 34 36 34 27 24 25 26 28 29 28 29 27 25 21 20 19 21 24 25 26 25 29 30 32
48 48 48 47 47 44 37 35 38 37 30 29 32 32 32 31 31 31 32 34 36 34 32 26 19 14 21 18 20 27 28 28 24 23 20 8 19 26 28 26 18 28 30 31
46 47 48 47 47 45 37 34 37 37 31 31 32 32 31 33 33 32 33 33 33 34 30 26 21 19 22 16 19 17 18 22 22 22 22 21 24 27 27 16 9 29 30 31
45 46 47 46 45 44 39 35 36 36 31 31 33 33 32 33 33 31 33 31 32 32 29 26 24 22 21 22 20 19 16 16 18 20 19 10 27 27 21 19 28 29 29 29
45 45 46 45 43 43 40 31 36 37 34 33 32 32 32 32 33 33 33 32 32 33 30 29 28 23 23 20 17 22 19 20 16 19 16 21 27 24 27 27 26 28 29 29
45 44 45 45 42 42 40 35 34 37 33 32 31 31 31 32 32 33 32 34 34 35 34 31 30 27 26 23 21 21 23 25 23 21 18 23 26 28 29 29 28 29 30 30
45 44 44 46 42 41 38 33 34 35 34 30 31 31 30 32 32 32 33 33 34 34 34 31 30 28 28 26 24 23 22 25 24 24 24 25 26 28 29 29 30 30 30 29
44 45 44 46 44 42 38 36 35 34 30 25 26 31 31 31 31 32 33 32 32 33 32 31 30 31 30 28 27 26 26 25 23 21 23 22 23 28 29 29 29 29 28 26
44 45 45 45 45 42 38 34 37 37 36 27 18 31 30 30 30 30 32 33 33 33 32 31 32 32 30 28 25 26 26 27 27 25 25 27 28 29 30 29 29 29 26 25
43 44 45 45 42 38 35 33 36 37 35 28 20 21 30 29 29 30 30 31 30 31 30 31 30 30 30 27 26 26 27 27 26 27 28 27 28 28 30 29 27 27 23 20
43 44 45 43 39 38 32 36 38 37 31 29 19 18 25 29 27 27 30 29 29 29 29 29 28 28 28 27 28 28 29 28 28 27 28 27 29 29 27 26 24 19 14 13
46 46 43 36 34 32 33 39 39 36 29 21 22 15 16 28 28 29 28 28 26 28 28 27 27 26 25 27 27 27 27 27 27 27 28 29 28 27 26 23 17 13 13 16
43 36 33 29 33 37 37 34 30 29 29 27 22 24 23 26 26 26 27 27 25 24 26 27 25 25 26 26 26 26 26 27 27 25 26 25 27 26 22 17 15 14 17 17
35 32 30 33 36 33 28 26 25 26 25 26 24 25 23 28 23 24 28 25 25 22 20 24 21 20 24 27 25 26 27 28 27 26 26 24 24 22 17 17 18 17 16 16
36 34 34 33 29 25 22 18 21 23 20 25 24 24 27 27 28 26 26 23 24 19 24 22 18 18 22 26 25 25 26 26 24 23 23 21 21 18 18 18 17 17 17 18
33 30 26 25 23 21 18 15 16 16 20 24 25 23 26 26 27 26 25 21 20 23 21 18 17 18 24 25 25 23 20 20 20 19 19 18 18 18 16 15 16 17 17 15
29 26 23 21 20 21 20 18 16 18 22 24 23 25 23 25 23 23 20 20 21 18 16 12 15 18 25 25 25 21 19 18 18 18 17 16 15 15 16 17 16 15 13 15
30 27 23 22 22 23 23 23 24 26 26 26 23 24 23 23 22 23 21 20 17 16 12 12 15 25 24 24 25 22 19 19 18 18 16 15 16 16 16 16 16 15 15 15
32 30 27 27 25 24 25 24 21 26 27 26 24 21 21 20 19 20 18 15 12 10 15 18 23 23 22 23 25 23 21 19 18 17 15 16 16 15 15 16 16 15 15 15
31 28 30 29 27 27 26 23 23 27 24 17 21 14 11 20 18 18 18 15 14 14 16 24 24 20 22 24 24 23 21 19 17 15 16 16 17 15 15 14 16 15 15 15

GFSNW_sfc_30mbdewp_099.txt.gz
Dewpoint
47 47 47 48 49 46 39 35 30 37 42 32 32 32 35 37 34 36 33 30 27 27 28 30 31 30 32 35 36 32 35 32 27 25 31 30 31 29 28 23 21 24 23 27
49 48 47 47 48 47 37 32 32 37 38 29 30 33 33 36 32 31 30 29 30 30 28 27 29 31 34 36 35 33 34 28 21 13 19 25 27 29 27 28 24 24 22 25
50 49 48 48 49 48 37 31 27 32 35 35 33 32 31 30 33 30 31 31 30 28 28 30 29 29 33 36 35 35 32 29 24 17 19 26 25 26 24 25 22 24 25 26
50 49 49 48 47 48 36 32 32 34 28 29 30 33 31 30 30 32 32 30 32 30 27 26 27 30 29 32 33 34 31 28 26 26 26 26 25 26 22 26 26 23 25 27
49 49 49 48 46 46 38 32 31 34 29 30 30 31 31 31 31 31 30 30 31 32 28 29 27 30 29 28 29 30 31 27 28 25 27 26 24 24 23 27 28 27 28 27
48 48 49 48 47 42 38 39 37 31 28 30 30 31 32 31 33 32 33 32 31 28 31 33 33 33 32 31 30 28 28 27 25 17 23 24 21 23 23 27 29 28 26 27
48 48 49 48 47 40 37 37 35 28 26 30 31 32 32 31 33 31 33 33 31 32 35 35 34 33 32 31 31 30 27 26 26 23 20 8 19 23 25 25 27 30 30 31
48 48 48 48 47 42 35 36 35 30 25 29 31 31 31 32 32 32 33 33 33 36 32 26 22 23 24 26 29 29 29 27 25 20 21 17 21 23 24 25 22 29 30 31
47 47 48 47 47 45 35 35 38 35 30 26 32 31 32 31 30 31 32 34 35 34 31 24 17 10 19 16 17 27 28 28 25 23 18 4 16 26 28 25 16 27 30 31
46 46 47 46 45 45 37 33 37 36 30 30 32 31 31 33 32 31 32 33 33 34 29 25 21 18 22 17 16 18 22 22 23 23 21 20 23 27 27 14 7 28 30 31
45 45 47 46 44 45 38 35 36 35 31 30 33 33 32 33 33 31 31 31 31 31 27 27 24 22 21 22 21 18 16 15 18 20 19 10 27 27 20 19 28 29 30 30
45 45 45 46 44 44 39 33 35 37 34 33 33 33 33 33 33 33 33 31 31 33 30 30 28 25 23 20 17 20 17 19 13 19 17 20 26 25 26 27 27 29 29 29
44 45 44 46 44 42 39 36 34 36 34 33 31 30 31 32 32 34 31 33 34 34 34 31 29 27 27 23 22 21 21 24 22 21 20 20 24 27 28 28 27 28 29 30
43 45 44 44 46 42 38 33 34 35 33 29 29 31 31 32 32 32 34 33 34 34 33 31 29 28 28 25 24 22 22 24 23 24 23 24 25 26 27 29 29 30 30 30
42 45 45 44 46 44 38 36 35 34 29 24 25 30 31 31 31 32 33 32 32 33 31 31 30 31 30 29 27 26 26 24 23 22 23 22 21 24 27 29 29 30 28 27
42 44 45 44 46 42 38 34 36 36 35 28 19 29 30 30 30 30 32 33 32 33 32 31 31 31 30 27 26 27 27 27 27 25 26 25 26 29 29 29 30 29 27 26
42 44 45 45 42 38 33 33 35 37 35 27 21 20 29 29 29 30 30 31 31 31 30 30 30 30 31 28 27 27 28 28 28 28 27 27 28 27 30 30 29 28 24 23
41 43 45 45 40 38 34 36 38 36 30 28 19 17 23 29 26 27 29 29 29 29 29 29 29 28 29 27 28 28 29 28 27 28 28 27 28 29 29 27 24 22 18 14
42 44 44 37 34 31 33 39 39 35 29 21 21 16 13 28 27 28 28 28 26 28 27 27 27 26 26 27 28 27 27 26 26 27 28 28 28 28 26 25 21 18 13 14
45 37 34 31 32 37 38 33 30 29 28 26 23 22 21 26 26 26 26 27 25 23 25 27 26 25 27 27 27 27 26 25 27 26 26 27 27 27 25 23 18 14 14 17
35 32 31 33 37 32 28 26 26 26 24 26 24 23 22 27 23 23 27 24 24 22 21 24 22 21 22 25 26 26 26 27 28 27 27 28 28 27 23 18 16 16 18 16
35 34 34 33 29 25 24 21 21 24 21 24 23 24 26 27 28 26 26 23 24 18 23 23 19 19 20 23 25 25 23 25 25 24 24 24 26 24 19 18 18 18 17 18
35 30 26 26 25 21 19 15 17 19 21 24 24 25 26 26 27 25 24 22 20 22 21 18 18 18 21 23 24 24 20 21 21 21 21 21 20 19 18 17 17 17 17 17
32 30 25 22 19 20 20 19 19 21 22 24 24 24 23 25 23 23 19 21 21 19 16 14 16 16 19 23 25 23 20 19 19 18 18 18 17 16 16 15 16 16 14 14
31 29 24 23 22 23 23 23 24 25 26 24 22 23 23 23 21 23 20 19 17 17 13 14 13 16 22 22 24 24 20 18 18 17 16 15 15 15 15 16 16 15 14 14
32 30 26 25 24 23 24 24 26 27 26 24 23 21 19 18 19 20 17 15 11 11 17 17 18 20 20 20 23 24 22 20 18 17 16 16 16 15 14 16 16 15 15 15
30 28 31 27 26 25 25 26 27 27 25 17 20 13 11 19 18 17 18 14 13 15 15 17 21 19 18 21 23 25 23 21 19 17 16 15 16 16 15 13 15 16 16 16

GFSNW_sfc_30mbdewp_102.txt.gz
Dewpoint
49 49 47 47 49 47 38 33 30 36 39 31 32 32 35 36 33 35 33 30 27 28 28 29 30 30 30 34 36 33 34 31 27 24 30 30 31 29 27 24 21 23 24 24
50 49 49 47 48 45 36 30 31 36 37 29 30 32 33 35 32 30 30 29 30 29 28 27 31 30 33 35 35 33 34 29 22 10 17 25 26 29 27 27 25 23 23 22
50 49 49 48 47 47 35 31 25 31 33 34 32 31 30 29 32 31 31 31 30 28 28 30 28 29 32 36 35 36 34 29 26 16 17 24 24 25 25 26 22 23 24 25
49 48 49 49 47 48 35 32 31 33 28 29 30 32 31 29 29 32 32 29 31 30 27 27 26 29 29 33 34 35 31 28 27 27 26 26 25 25 25 24 25 23 22 26
48 48 49 49 47 44 37 31 31 33 29 30 30 31 31 31 31 31 29 30 31 31 29 29 28 30 29 28 29 31 31 27 27 25 26 27 25 25 25 23 27 26 27 27
48 48 49 49 46 41 37 38 36 30 29 30 29 30 31 30 33 31 33 31 31 28 30 33 33 33 32 31 30 28 28 27 25 20 22 22 17 21 24 24 28 27 25 26
47 48 48 48 47 39 36 37 33 28 25 29 30 32 31 30 32 31 32 33 31 31 35 35 34 33 33 32 31 31 27 26 25 23 21 4 13 23 24 24 25 29 29 30
47 47 48 47 47 41 35 36 34 29 24 28 30 32 31 32 32 31 32 33 33 35 32 26 21 19 23 26 29 30 30 27 24 20 20 16 16 22 23 22 20 26 29 30
46 46 47 47 45 44 35 35 37 34 29 23 31 31 32 30 29 30 31 34 35 34 29 24 14 7 16 14 18 28 29 28 25 22 17 3 9 25 28 25 15 21 30 31
45 45 46 47 45 45 37 33 37 35 30 30 32 30 30 32 32 30 31 32 33 33 28 23 19 16 21 15 14 18 24 23 24 24 22 20 22 27 27 16 5 27 30 31
45 45 45 47 45 45 38 35 36 35 31 30 32 33 32 33 33 30 31 31 30 31 26 25 24 22 22 21 21 18 16 14 17 21 21 12 26 27 20 18 25 28 30 30
44 45 45 45 45 43 38 34 35 37 34 31 33 33 33 33 33 33 33 31 30 32 30 29 27 25 23 21 18 20 16 17 14 19 16 20 25 26 25 25 26 27 28 29
43 44 45 45 46 43 38 35 34 36 33 32 32 30 32 32 32 34 31 32 34 34 33 30 29 26 27 24 22 22 21 23 21 21 20 21 22 24 27 28 27 27 29 29
42 43 45 45 45 45 38 34 34 34 32 27 27 31 31 32 32 33 34 34 34 34 33 31 29 28 28 26 25 23 22 23 22 23 23 23 23 24 25 26 29 29 29 30
42 42 45 45 45 46 39 36 34 33 29 24 24 28 30 31 32 32 33 32 32 32 31 30 29 30 29 28 27 26 26 24 23 21 22 23 23 23 26 26 27 29 30 29
42 42 44 45 45 44 37 34 36 36 34 27 21 26 30 30 31 31 32 32 32 32 31 30 30 30 30 26 25 26 27 28 27 26 27 26 26 26 28 28 28 30 29 27
43 42 44 45 45 40 35 32 35 37 34 25 21 20 28 29 29 30 30 31 31 31 30 30 29 29 31 29 27 27 27 27 28 29 28 27 27 27 28 29 30 31 27 25
43 42 44 45 42 38 35 36 39 35 30 28 20 18 20 29 26 26 29 29 29 29 29 28 29 28 29 27 27 28 29 29 28 27 28 28 28 29 29 29 27 26 24 20
43 43 44 39 37 32 32 40 38 34 29 22 21 16 12 28 27 28 28 28 26 28 27 27 28 27 25 28 28 28 28 27 26 26 26 27 28 28 28 27 25 24 19 16
43 41 38 35 33 37 39 33 31 30 28 27 23 22 18 26 26 26 26 27 25 23 25 27 26 25 27 27 28 28 28 27 25 24 25 26 27 27 27 26 23 21 17 15
39 36 32 34 37 32 29 26 26 27 25 26 25 22 21 27 22 23 27 24 24 22 22 24 22 22 23 25 24 26 25 25 25 27 27 27 27 27 26 24 21 17 16 16
37 35 35 33 29 26 25 23 22 24 21 25 23 23 25 26 28 25 27 23 23 19 22 22 20 20 22 22 23 23 24 23 25 26 26 26 27 27 25 22 18 17 18 18
37 33 31 29 27 22 21 16 18 20 24 25 25 24 25 26 27 24 24 22 21 22 21 18 18 19 19 21 22 22 23 22 22 22 22 23 24 23 21 19 18 18 16 17
33 30 25 25 21 21 20 18 18 22 24 24 25 25 23 25 24 23 20 22 20 19 17 14 18 19 19 20 23 23 22 21 21 20 20 20 21 20 18 18 17 15 14 15
31 30 26 26 24 22 22 23 21 24 26 25 23 24 24 22 20 22 20 19 16 17 12 15 17 17 17 20 21 23 23 20 19 18 18 18 17 16 16 16 16 15 14 14
31 30 28 25 23 21 22 22 24 27 26 25 25 21 20 17 19 19 16 14 11 11 17 19 17 15 19 20 20 22 24 21 19 18 16 16 15 14 14 15 15 14 13 13
29 29 31 26 24 22 23 24 26 27 24 18 20 15 11 19 16 16 19 15 16 16 16 18 19 16 17 19 19 22 24 22 20 18 17 16 15 15 14 13 14 14 14 15

GFSNW_sfc_30mbdewp_108.txt.gz
Dewpoint
49 48 49 49 48 44 38 37 32 40 42 35 36 33 32 34 30 35 33 29 28 28 29 29 29 29 31 33 33 30 33 30 26 26 30 30 30 27 26 20 21 24 23 21
49 49 49 49 47 46 36 34 35 40 41 30 33 33 33 34 32 31 31 30 30 29 29 26 30 30 33 35 33 31 34 28 24 15 23 27 27 28 28 26 26 23 20 17
48 49 49 49 47 46 37 33 26 35 37 34 31 30 30 30 33 32 32 31 30 29 29 30 28 30 33 35 35 36 35 29 25 14 13 20 22 23 28 26 23 18 21 18
47 48 49 49 48 45 37 34 32 33 30 31 32 32 31 29 29 32 32 30 30 29 26 27 27 28 30 34 36 36 34 30 29 28 27 27 27 26 25 25 25 20 17 21
47 48 49 48 47 43 38 33 32 31 30 30 30 30 30 29 30 30 28 29 30 30 27 26 24 28 28 25 33 34 33 29 28 26 24 25 25 25 25 25 25 24 23 22
46 47 48 48 47 40 37 38 35 31 30 30 27 28 30 30 32 31 33 31 29 28 29 31 32 32 32 30 29 29 29 30 27 22 23 23 17 18 21 24 25 25 22 22
45 46 47 47 47 39 38 37 33 27 23 28 28 32 32 30 31 30 32 33 30 30 35 34 33 33 32 32 31 31 28 28 27 25 23 6 12 22 23 23 23 25 25 27
45 46 46 47 46 42 37 37 35 30 20 26 27 30 32 32 32 33 32 32 33 35 32 26 20 18 21 26 31 31 31 28 26 24 20 15 12 22 23 23 18 23 24 25
44 45 46 46 46 45 36 37 38 35 28 23 29 30 32 30 29 29 31 34 35 34 30 25 17 7 10 12 20 29 31 30 27 23 20 9 6 22 27 26 14 18 23 25
44 44 45 45 46 45 39 36 38 36 30 30 31 28 28 32 31 29 31 32 34 34 29 23 18 15 19 13 14 23 27 28 26 24 22 22 22 25 27 15 8 20 29 29
44 44 44 45 46 45 39 38 37 34 31 30 31 32 32 33 32 25 30 30 32 31 28 25 23 22 21 21 19 19 20 22 23 24 23 18 25 27 18 18 21 23 27 29
46 44 43 45 45 46 39 36 35 37 33 31 33 33 34 33 33 32 33 30 30 32 29 28 27 26 25 22 17 21 18 17 15 19 18 22 25 25 26 25 25 26 27 26
48 45 44 44 45 45 41 36 36 36 33 32 32 32 33 33 34 35 30 33 34 34 34 32 30 27 28 22 22 22 22 21 19 19 18 20 21 22 23 23 24 25 26 27
49 47 45 43 45 45 42 39 35 34 32 30 30 32 31 32 33 33 34 34 34 34 34 33 31 29 29 26 25 24 22 23 21 21 22 23 24 24 24 25 26 26 28 28
50 48 46 43 45 45 43 40 37 35 32 29 29 29 30 31 32 32 33 34 34 33 32 32 31 31 30 29 28 27 26 24 23 21 23 22 21 24 27 27 28 28 28 28
50 49 46 44 45 44 39 34 36 35 34 30 29 29 29 31 32 32 32 33 32 33 32 31 32 31 31 29 26 26 28 28 26 23 24 25 25 28 29 28 28 27 29 29
50 49 46 44 45 42 35 32 36 36 34 27 24 23 28 30 30 30 31 32 32 32 32 30 30 30 32 30 24 21 26 27 28 28 28 27 28 27 28 28 27 28 30 30
51 49 46 45 45 43 39 39 40 36 30 29 24 22 20 29 28 28 30 30 31 31 31 30 29 29 31 27 27 27 26 26 27 28 28 28 29 28 27 27 27 28 29 27
50 48 45 43 41 38 35 40 39 35 31 27 25 22 18 28 27 28 29 29 27 29 29 29 29 28 26 25 25 26 28 28 28 28 28 28 27 26 24 26 27 28 28 25
47 42 38 35 37 40 38 35 33 32 32 30 27 27 21 28 27 27 28 28 27 25 26 28 26 26 27 27 28 28 28 29 29 27 26 25 23 26 26 27 28 28 28 24
40 38 36 36 40 34 32 29 29 29 27 29 28 26 23 27 24 25 27 26 26 22 24 25 24 24 24 25 27 27 28 29 29 29 28 25 25 27 27 27 27 27 26 24
40 38 37 35 33 31 28 26 26 26 24 26 26 25 26 26 28 26 26 24 24 20 25 23 20 22 25 24 25 26 27 28 27 25 24 27 27 27 28 27 27 26 25 23
39 35 32 30 30 24 23 21 22 22 25 26 25 24 26 27 28 26 25 22 21 23 21 19 20 23 22 23 24 24 25 24 23 23 25 26 25 25 26 27 26 24 21 20
34 30 26 27 26 25 24 23 22 23 26 26 25 26 25 26 25 25 22 22 22 19 17 13 20 19 22 21 23 22 20 22 22 23 25 24 24 23 24 25 23 21 19 18
32 30 25 26 27 25 24 24 24 25 27 26 25 25 24 24 24 23 21 19 17 18 14 18 20 20 21 21 20 20 19 20 22 23 22 23 22 22 22 22 22 20 18 17
33 31 28 30 27 26 23 23 24 27 27 27 26 23 22 21 22 20 18 16 12 12 20 22 23 19 19 22 21 19 20 19 20 22 22 22 21 21 22 20 19 18 17 16
30 28 30 29 27 28 27 25 23 28 27 26 27 24 23 22 20 17 18 15 16 17 21 23 22 19 18 19 19 19 19 19 20 21 21 22 21 20 19 18 18 18 17 16

GFSNW_sfc_30mbdewp_111.txt.gz
Dewpoint
48 48 48 49 47 48 41 40 36 42 43 38 35 33 30 31 31 33 31 29 28 27 28 27 26 26 28 31 31 29 31 28 25 24 28 31 30 27 25 20 16 21 19 17
48 48 48 48 47 46 39 33 35 43 42 34 32 33 32 33 31 31 31 29 30 29 27 25 27 28 31 33 32 30 31 28 23 21 22 26 26 26 26 25 23 19 13 13
48 48 49 48 46 46 39 33 33 33 34 35 29 29 30 30 33 31 32 30 30 29 27 29 27 27 32 33 34 35 34 28 25 17 15 21 20 22 25 25 22 19 17 16
46 47 49 48 47 44 40 35 33 35 32 30 30 31 29 28 29 32 32 29 29 28 24 25 24 26 27 33 36 35 34 28 27 27 26 25 24 23 23 22 24 22 20 15
45 46 48 48 46 44 38 33 32 32 30 31 30 29 28 27 29 30 28 29 29 28 26 26 25 26 26 23 32 33 33 28 27 27 24 21 21 22 22 22 23 22 22 22
45 46 48 48 47 41 36 38 35 32 30 28 26 25 28 28 31 31 31 30 28 26 26 29 29 29 29 28 26 29 29 29 28 22 21 22 18 18 19 20 21 21 20 20
45 45 46 48 47 41 38 37 34 27 20 27 25 29 30 29 30 27 30 31 29 30 33 33 32 31 29 28 28 28 26 27 26 24 23 15 16 19 18 18 19 21 22 23
45 45 46 47 46 43 37 38 37 30 20 21 22 29 30 31 31 31 31 30 31 34 32 25 20 19 21 25 28 29 29 26 24 23 20 17 15 20 22 21 15 20 21 21
45 45 45 46 46 45 39 37 39 35 28 22 24 25 27 27 25 27 30 34 35 34 29 23 17 8 8 11 23 28 29 29 25 22 19 12 9 23 25 26 16 20 22 21
45 45 44 46 46 45 40 38 39 36 30 28 28 24 24 29 28 26 30 32 34 35 27 23 16 13 17 10 12 24 26 27 26 25 21 20 21 25 27 13 11 20 24 24
48 45 44 45 46 46 40 39 38 37 32 30 31 32 30 32 31 23 31 30 32 32 27 22 20 19 18 19 14 18 20 22 23 23 21 19 23 26 18 18 21 22 25 25
49 47 45 44 45 46 41 37 36 36 34 32 33 32 32 33 32 30 31 28 29 29 29 27 24 23 23 19 14 19 16 15 14 20 21 22 25 20 24 26 25 24 24 25
50 49 46 44 45 45 43 40 38 37 35 34 34 32 34 34 34 35 28 29 30 33 35 31 28 27 24 21 20 20 20 21 19 16 17 19 20 23 23 23 23 24 25 26
51 50 48 45 44 45 44 41 38 36 33 31 29 32 31 33 33 34 34 34 35 35 36 32 29 25 26 24 22 22 23 22 21 20 20 21 22 23 23 23 24 26 27 27
52 50 49 46 44 45 45 43 40 37 33 31 29 32 31 32 32 33 34 34 33 33 32 34 31 30 30 28 28 27 26 23 22 20 21 21 21 23 25 25 27 28 28 28
50 51 50 47 45 45 40 34 38 38 35 32 30 31 29 31 32 32 33 33 33 33 32 31 32 33 31 27 24 24 23 26 25 23 23 23 24 27 26 27 28 28 27 26
50 51 50 47 45 43 35 32 37 37 35 31 27 29 29 31 31 32 32 33 33 33 32 32 31 31 32 30 24 21 20 24 26 27 26 25 27 27 28 29 29 28 27 27
48 49 50 46 46 45 40 41 39 37 32 30 26 28 25 30 29 28 31 31 31 32 31 31 30 30 31 28 26 25 25 25 25 26 28 27 27 29 29 29 28 26 25 27
47 49 46 44 42 39 38 41 41 36 32 29 29 27 27 29 29 29 29 30 27 30 28 28 29 26 26 26 26 26 25 27 27 28 28 28 29 29 28 26 24 26 27 28
47 42 39 36 39 41 38 36 34 33 34 32 28 29 27 28 27 27 28 28 26 25 26 29 27 25 26 26 27 28 27 28 29 28 27 28 28 27 25 27 27 28 28 28
41 39 36 37 41 37 34 31 30 30 28 30 29 30 27 28 26 26 28 28 27 23 26 25 24 24 25 26 25 26 26 27 30 30 30 28 27 25 26 28 28 28 28 28
41 38 38 37 33 31 29 28 28 27 26 29 28 28 28 27 28 26 27 26 25 22 26 23 22 23 26 27 27 26 27 27 29 29 29 28 25 27 28 28 29 29 29 28
40 36 32 31 31 25 24 24 25 25 27 28 27 26 27 27 29 28 27 25 22 24 22 21 21 25 25 23 25 26 27 28 28 27 25 25 27 28 28 28 28 28 27 26
34 31 26 28 27 26 27 27 27 28 29 28 28 27 26 26 26 26 24 24 23 21 19 16 24 25 26 24 24 25 24 24 23 23 25 26 26 26 26 27 27 25 24 22
31 30 25 27 30 31 30 32 27 27 29 28 29 29 28 27 27 26 26 21 19 20 18 23 26 26 23 22 23 23 23 23 22 24 24 24 26 25 24 25 25 24 22 20
33 31 28 31 29 30 28 28 29 29 29 30 29 28 25 25 26 23 21 21 17 18 22 23 25 22 22 21 23 22 22 21 22 24 24 24 25 24 24 24 23 23 21 20
30 29 29 28 28 28 31 29 28 28 29 28 29 24 23 26 22 21 22 20 21 24 23 26 26 22 22 22 20 22 21 20 20 21 23 24 25 25 23 21 22 22 20 20

GFSNW_sfc_30mbdewp_114.txt.gz
Dewpoint
48 48 48 48 48 48 43 43 37 44 44 39 35 33 30 31 31 33 31 30 28 26 27 26 25 25 28 30 31 29 32 28 25 26 29 31 30 30 28 23 18 21 20 20
47 48 48 48 47 47 42 35 35 46 43 34 32 32 33 32 32 31 31 29 30 29 27 25 26 27 31 32 32 32 31 28 22 23 24 27 26 27 29 26 25 22 18 13
46 47 48 48 47 47 43 37 32 37 36 34 30 29 29 30 33 31 31 30 30 28 27 28 27 27 33 32 33 35 34 29 25 14 18 25 23 24 24 25 24 23 20 19
45 46 48 48 47 47 43 36 33 35 34 30 30 30 29 29 29 32 31 30 29 28 25 24 25 26 29 33 36 34 33 29 28 28 27 27 26 25 24 22 24 23 21 21
45 46 48 48 46 45 40 36 34 33 30 31 30 29 29 28 29 29 28 29 28 28 27 25 25 25 25 24 34 33 34 29 28 26 26 25 24 24 24 24 23 23 23 22
46 46 47 48 46 44 38 38 36 33 30 28 26 27 28 28 30 30 31 30 28 27 28 30 29 29 28 28 27 32 30 30 27 23 25 25 20 20 22 22 22 22 22 23
46 45 46 47 47 45 40 38 37 31 25 26 25 28 29 29 29 29 29 31 29 32 33 32 31 31 30 29 28 28 26 28 26 23 24 18 19 18 17 20 21 22 21 21
46 46 45 46 46 45 39 39 39 34 27 22 21 26 29 29 30 30 30 31 32 34 32 28 21 21 22 24 27 27 28 27 24 22 22 22 21 19 19 17 15 18 19 21
46 46 45 45 46 45 41 40 40 38 32 25 24 24 24 26 25 27 31 34 35 34 31 25 19 13 11 16 25 27 29 28 26 23 21 15 16 22 25 25 13 20 21 20
48 46 45 45 46 46 42 39 40 39 33 29 27 25 26 28 28 27 29 32 34 35 29 25 19 16 17 9 13 24 26 26 25 24 22 23 21 24 26 12 9 20 21 22
50 47 45 45 46 46 42 40 39 38 35 33 31 30 29 31 31 24 31 30 33 33 29 25 22 20 18 18 16 23 23 24 23 24 22 18 26 26 19 18 21 21 24 24
51 49 47 45 45 45 44 39 37 36 34 32 35 33 33 32 34 32 30 29 30 31 30 29 26 23 22 20 17 17 15 22 20 23 23 24 26 23 26 25 24 25 25 26
52 51 49 46 44 45 43 41 39 38 35 35 35 33 35 34 34 35 29 30 32 33 36 33 31 27 28 23 21 22 20 19 18 18 18 18 20 25 25 26 25 25 25 25
51 52 51 48 45 45 45 42 40 37 35 30 30 32 31 33 33 34 35 34 35 35 36 33 31 27 27 25 25 25 24 23 21 20 21 21 21 22 22 23 24 24 26 27
49 50 51 49 46 45 45 44 42 40 34 31 30 33 31 32 32 33 34 34 34 33 33 33 32 31 29 28 28 26 27 23 21 20 21 20 21 23 24 24 25 26 27 29
48 49 50 50 46 45 41 34 40 40 37 33 30 32 30 31 32 32 33 33 33 34 33 31 32 33 31 28 27 25 25 27 26 23 25 24 24 26 26 25 27 28 29 29
48 48 49 50 46 44 38 36 38 38 36 31 28 29 30 31 32 32 32 33 33 33 33 32 32 32 31 30 24 22 23 24 27 27 27 26 26 26 28 28 29 29 29 28
47 47 48 50 47 45 41 42 40 37 33 30 26 27 27 31 29 29 32 31 31 33 32 32 30 31 31 27 27 27 27 26 26 25 26 27 28 28 28 29 29 28 28 27
46 48 46 44 42 39 39 41 41 37 33 30 29 27 28 30 29 30 30 29 25 30 30 29 29 28 25 27 27 27 26 27 27 28 28 27 27 28 29 29 29 27 25 26
45 42 40 36 39 41 39 36 34 33 34 32 27 31 29 29 28 28 28 28 25 24 26 28 28 24 26 26 26 26 27 28 28 27 26 27 27 28 28 28 26 27 27 28
42 39 37 37 41 37 35 32 29 30 27 30 30 29 28 29 26 27 29 28 27 22 25 25 24 24 24 26 26 26 26 27 27 29 29 29 27 27 26 25 27 28 28 28
40 39 38 38 34 32 29 28 29 28 26 29 28 28 29 29 29 27 28 26 26 22 27 23 20 23 26 25 24 25 27 26 27 29 30 30 28 27 25 27 28 28 28 29
40 36 33 31 31 25 24 24 25 25 27 28 27 25 28 27 28 28 29 25 23 25 22 20 21 23 24 26 23 24 26 27 29 29 30 29 27 27 27 27 28 29 29 29
34 31 27 26 25 27 27 27 27 29 30 29 29 27 26 27 26 27 24 26 24 21 19 17 21 21 24 24 23 25 24 24 25 27 27 25 24 25 27 28 27 27 27 26
30 31 24 26 28 32 31 32 27 26 30 29 28 29 28 27 27 28 27 23 19 21 16 21 22 28 23 22 21 21 22 24 23 24 23 22 24 26 26 26 26 26 26 24
33 29 27 30 29 30 29 28 29 30 29 30 30 27 25 25 26 25 21 22 19 18 22 25 26 24 24 22 21 21 22 22 22 24 23 23 23 24 25 25 25 25 24 23
29 28 31 29 27 28 28 30 29 30 29 26 29 25 22 27 23 22 25 22 23 26 26 29 29 27 25 24 23 19 20 21 21 21 21 22 24 25 25 23 24 24 24 23

GFSNW_sfc_30mbdewp_120.txt.gz
Dewpoint
46 46 48 48 49 47 42 42 26 42 44 30 32 29 30 31 30 33 33 31 28 27 27 26 27 26 29 31 30 30 31 29 25 26 28 31 31 29 29 20 14 22 20 17
48 46 47 48 49 46 41 34 35 44 41 21 29 32 32 32 31 32 31 30 30 29 27 25 26 28 31 32 31 31 31 26 16 16 24 29 30 31 30 27 25 22 17 10
48 47 47 48 48 49 41 35 24 33 34 33 30 30 30 29 33 32 31 31 30 28 27 28 26 27 31 32 33 35 33 28 22 -3 3 24 24 25 28 29 26 23 22 19
48 47 47 48 48 49 38 32 29 34 28 29 30 30 30 29 29 32 32 30 29 28 27 26 26 27 32 33 34 34 32 25 27 27 27 27 27 26 26 25 26 23 16 18
47 47 47 47 47 45 36 30 31 33 30 30 28 29 29 28 29 29 28 29 29 29 27 26 25 26 26 26 35 33 34 25 29 27 27 27 26 26 27 27 26 25 25 24
48 47 47 47 47 40 32 36 36 32 30 28 24 27 28 28 29 29 31 30 29 27 28 30 30 29 28 28 31 32 32 31 26 20 24 24 17 18 20 23 26 25 22 23
48 47 47 47 47 42 37 38 37 27 23 26 25 28 28 28 29 27 30 31 29 29 33 31 30 30 30 29 29 33 30 29 27 25 22 6 12 21 21 20 21 24 24 24
48 47 47 47 46 45 37 38 37 30 16 25 24 23 25 29 30 30 29 30 31 34 30 26 18 15 22 27 28 29 30 28 24 20 21 18 17 19 18 17 13 18 20 19
50 48 46 46 46 45 40 37 39 36 24 21 25 23 24 23 24 26 31 34 35 33 28 25 14 8 12 12 23 28 28 28 24 23 19 5 11 21 24 20 10 15 18 15
51 49 47 46 46 45 41 37 39 37 28 29 28 24 21 29 28 25 28 32 32 34 28 24 21 16 18 13 12 22 26 26 25 24 23 22 24 24 24 14 6 17 21 18
51 51 49 47 46 45 41 39 37 32 29 30 33 30 29 31 30 23 26 27 32 31 26 25 24 23 20 18 17 21 18 21 24 25 22 14 25 25 19 17 19 19 21 21
49 51 51 49 46 46 42 36 40 38 31 31 36 35 35 32 31 30 29 27 31 32 27 28 28 25 24 21 17 24 18 19 19 24 22 23 26 23 24 23 22 21 21 21
49 49 50 51 48 46 42 39 39 37 34 32 32 33 35 35 35 35 29 30 32 33 35 32 31 27 28 24 23 22 22 23 21 22 21 23 25 26 26 27 26 25 24 24
49 49 49 50 51 47 45 41 39 36 34 30 30 33 31 33 33 34 34 33 35 36 34 32 30 28 29 25 25 24 23 23 22 21 21 22 22 22 22 22 23 25 26 26
48 47 47 49 50 49 46 44 42 40 32 28 30 32 32 32 31 32 33 33 33 32 30 30 29 31 30 28 28 25 26 24 23 22 23 23 23 23 23 23 23 23 24 24
46 47 47 49 49 48 42 37 40 40 38 32 31 33 30 31 32 32 33 33 33 32 30 29 30 32 30 26 25 27 28 26 26 24 25 26 26 27 27 26 26 25 25 25
46 47 48 47 49 45 41 39 37 41 37 32 32 31 30 32 32 32 32 33 32 32 31 31 30 31 32 29 25 26 26 28 28 28 28 26 26 26 27 27 27 27 28 28
45 46 47 47 49 45 43 43 42 40 34 32 31 30 29 30 28 28 31 30 31 31 31 32 29 30 30 27 27 28 28 28 28 27 27 27 27 28 28 28 28 28 28 28
46 46 43 43 41 40 40 42 40 37 35 32 29 26 26 29 29 29 29 30 27 30 29 29 30 29 25 27 27 27 27 26 26 27 27 27 26 27 28 28 28 28 28 28
46 42 38 34 38 42 40 36 34 34 34 32 28 29 27 28 27 27 27 28 25 23 27 31 28 25 27 27 26 26 26 26 26 25 22 25 27 27 27 27 28 29 29 28
40 37 35 38 42 37 35 32 30 30 27 31 30 29 28 30 28 29 31 27 26 22 23 25 24 23 24 25 25 25 25 25 25 26 26 28 28 28 28 27 27 27 26 25
39 38 38 38 35 32 29 28 29 27 25 28 27 28 29 29 30 30 30 27 26 21 28 24 20 22 24 24 23 24 24 23 22 23 24 26 28 29 28 28 28 28 27 26
39 34 31 30 29 24 23 20 24 24 26 28 28 27 28 28 28 28 28 25 23 26 23 20 20 23 23 23 24 24 24 23 22 22 23 23 23 24 26 25 26 27 26 27
33 28 22 24 22 23 23 23 23 26 27 27 27 26 26 26 26 27 24 24 26 20 17 17 20 22 23 24 26 26 24 23 22 22 23 24 25 24 24 24 24 24 24 25
28 26 21 21 24 24 26 26 27 27 28 28 27 28 29 26 25 26 24 23 20 19 17 19 20 26 27 26 25 25 24 23 23 24 25 25 25 25 25 25 24 25 25 25
31 28 23 24 24 24 26 27 28 28 29 29 29 27 25 24 24 22 20 19 16 15 20 22 23 25 25 24 21 20 22 21 22 24 25 26 26 25 25 25 25 25 25 25
29 26 27 24 25 23 25 28 28 29 29 27 28 23 21 22 22 21 22 19 18 19 22 24 25 24 22 21 21 23 21 21 22 25 26 27 27 27 24 24 25 25 25 25